Location: Balmoral
(33.0667°S, 151.5833°E)
Time: 03:35:04
(UTC+00:00)

SL-08 R/B - Pass Details

Date: 18 September 2020
Orbit: 951 x 1017 km, 83.0° (Epoch: 23 October)

Event Time Altitude Azimuth Distance (km) Brightness Sun altitude
Exits shadow 17:29:11 76° 229° (SW) 1,048 4.4 -29.3°
Drops below altitude 10° 17:35:17 10° 177° (S) 2,792 7.1 -28.1°
Sets 17:37:50 0° 175° (S) 3,738 7.8 -27.6°
